This is the latest recevied weather packets stored in our database for station/object KT5AL. If no packets are shown the sender has not sent any weather packets the latest 10 day(s).
| Time | Temp. | Humidity | Pressure | Rain* | Wind** | Luminosity | Snow |
|---|---|---|---|---|---|---|---|
| 1777813507 | 15° C | 91% | 1022.9 hPa | 0 mm | - | - | - |
| 1777813207 | 15° C | 92% | 1022.9 hPa | 0 mm | - | - | - |
| 1777812904 | 14.44° C | 91% | 1022.9 hPa | 0 mm | - | - | - |
| 1777812607 | 13.89° C | 92% | 1022.9 hPa | 0 mm | - | - | - |
| 1777812304 | 13.89° C | 93% | 1022.6 hPa | 0 mm | - | - | - |
| 1777812007 | 13.33° C | 95% | 1022.6 hPa | 0 mm | - | - | - |
| 1777811704 | 13.33° C | 98% | 1023.2 hPa | 0 mm | - | - | - |
| 1777811407 | 12.78° C | 98% | 1023.2 hPa | 0 mm | - | - | - |
| 1777811104 | 12.78° C | 99% | 1023.2 hPa | 0 mm | - | - | - |
| 1777810807 | 12.22° C | 100% | 1023.2 hPa | 0 mm | - | - | - |
| 1777810504 | 12.22° C | 100% | 1023.2 hPa | 0 mm | - | - | - |
| 1777810207 | 11.67° C | 99% | 1023.2 hPa | 0 mm | - | - | - |
| 1777809904 | 11.67° C | 99% | 1023.6 hPa | 0 mm | - | - | - |
| 1777809607 | 11.11° C | 98% | 1023.6 hPa | 0 mm | - | - | - |
| 1777809305 | 11.11° C | 97% | 1023.9 hPa | 0 mm | - | - | - |
| 1777809008 | 11.11° C | 96% | 1023.9 hPa | 0 mm | - | - | - |
| 1777808705 | 11.11° C | 96% | 1023.6 hPa | 0 mm | - | - | - |
| 1777808408 | 11.11° C | 96% | 1023.6 hPa | 0 mm | - | - | - |
| 1777808105 | 11.11° C | 95% | 1023.6 hPa | 0 mm | - | - | - |
| 1777807808 | 11.11° C | 95% | 1023.6 hPa | 0 mm | - | - | - |
| 1777807505 | 11.11° C | 95% | 1023.6 hPa | 0 mm | - | - | - |
| 1777807234 | 11.67° C | 95% | 1023.6 hPa | 0 mm | - | - | - |
| 1777806905 | 11.11° C | 95% | 1023.2 hPa | 0 mm | - | - | - |
| 1777806608 | 11.11° C | 95% | 1023.2 hPa | 0 mm | - | - | - |
| 1777806303 | 11.11° C | 95% | 1023.2 hPa | 0 mm | - | - | - |
* Rain latest hour (hover to see other rain measurements)
** Current wind speed in m/s (hover to see current wind gust speed)